Location: Chmeli�t?
(49.8978°N, 15.0526°E)
Time: 07:43:51
(UTC+00:00)

Cosmos 2074 Rocket - Pass Details

Date: 06 October 2020
Orbit: 967 x 987 km, 82.9° (Epoch: 30 October)

Event Time Altitude Azimuth Distance (km) Brightness Sun altitude
Rises 19:30:55 0° 359° (N) 3,694 7.4 -29.5°
Reaches altitude 10° 19:34:34 10° 20° (NNE) 2,737 6.4 -30.0°
Enters shadow 19:36:19 14° 35° (NE) 2,435 6.0 -30.3°
